HB9CYX-13 Weather Reports


time (UTC)temp
C
wind
direction
speed
KPH
gust
KPH
rain 1hr
cm
rain 24hr
cm
rain mn
cm
humidity
%
barometer
mb
20260506174659 11 225 0.0 57.9 0.00 0.36 0.36 73 1012.3
20260506173442 11 270 8.0 57.9 0.00 0.36 0.36 75 1012.3
20260506172224 11 225 9.7 57.9 0.00 0.36 0.36 74 1012.1
20260506171007 11 292 8.0 57.9 0.00 0.36 0.36 74 1012.0
20260506165750 11 315 12.9 57.9 0.00 0.36 0.36 75 1011.8
20260506164533 11 270 4.8 57.9 0.00 0.36 0.36 75 1011.9
20260506163314 11 315 4.8 57.9 0.00 0.36 0.36 75 1012.0
20260506162057 11 315 12.9 57.9 0.00 0.36 0.36 75 1011.9
20260506160840 11 315 8.0 57.9 0.00 0.36 0.36 75 1011.7
20260506155623 11 315 11.3 57.9 0.00 0.36 0.36 75 1011.8
20260506154406 11 225 8.0 57.9 0.00 0.36 0.36 75 1011.8
20260506153148 11 292 8.0 57.9 0.00 0.36 0.36 76 1012.0
20260506151931 11 292 11.3 57.9 0.00 0.36 0.36 77 1011.9
20260506150714 11 270 0.0 57.9 0.00 0.36 0.36 77 1011.8
20260506145457 11 225 17.7 57.9 0.00 0.36 0.36 75 1011.9
20260506144239 11 315 19.3 57.9 0.00 0.36 0.36 76 1011.9
20260506143022 11 45 9.7 57.9 0.00 0.36 0.36 77 1011.8
20260506141805 11 270 12.9 57.9 0.00 0.36 0.36 85 1011.5
20260506140548 11 315 9.7 57.9 0.00 0.36 0.36 85 1011.5
20260506135331 11 292 9.7 57.9 0.00 0.36 0.36 85 1011.5
20260506134114 11 270 8.0 57.9 0.03 0.36 0.36 85 1011.5
20260506132856 10 315 9.7 57.9 0.08 0.36 0.36 85 1011.6
20260506131639 10 315 9.7 57.9 0.15 0.36 0.36 85 1011.6
20260506130422 10 292 22.5 57.9 0.18 0.36 0.36 88 1011.8
20260506125205 10 315 4.8 57.9 0.20 0.36 0.36 89 1011.8
20260506123943 9 270 9.7 57.9 0.23 0.33 0.33 89 1011.8
20260506122725 9 315 8.0 57.9 0.18 0.23 0.23 90 1011.5
20260506121508 10 292 12.9 57.9 0.15 0.18 0.18 90 1011.4
20260506120251 9 315 22.5 57.9 0.13 0.15 0.15 86 1011.5
20260506115034 10 315 30.6 57.9 0.08 0.10 0.10 84 1011.3
20260506113817 10 270 1.6 48.3 0.05 0.08 0.08 83 1011.0
20260506112600 10 270 29.0 48.3 0.03 0.05 0.05 84 1010.4
20260506111342 11 270 9.7 30.6 0.00 0.03 0.03 82 1010.0
20260506110125 12 22 4.8 30.6 0.00 0.03 0.03 81 1009.9
20260506104908 12 315 9.7 25.7 0.00 0.05 0.03 78 1009.8
20260506103651 13 292 6.4 14.5 0.00 0.05 0.03 76 1009.6
20260506102433 13 270 6.4 12.9 0.03 0.08 0.03 74 1009.5
20260506101216 15 270 0.0 11.3 0.03 0.08 0.03 73 1009.2
20260506095959 13 225 4.8 11.3 0.03 0.08 0.03 77 1009.4
20260506094742 13 315 4.8 11.3 0.03 0.08 0.03 76 1009.3
20260506093525 13 225 0.0 11.3 0.03 0.08 0.03 81 1009.3
20260506092308 12 315 3.2 11.3 0.00 0.05 0.00 82 1009.6
20260506091050 12 270 0.0 11.3 0.00 0.05 0.00 82 1009.4
20260506085833 12 180 0.0 11.3 0.00 0.05 0.00 81 1009.4
20260506084616 12 315 0.0 11.3 0.00 0.05 0.00 79 1009.4
20260506083359 12 315 0.0 11.3 0.00 0.05 0.00 79 1009.3
20260506082142 12 270 4.8 11.3 0.00 0.05 0.00 78 1009.3
20260506080925 12 180 3.2 11.3 0.00 0.05 0.00 78 1009.3
20260506073233 12 180 1.6 11.3 0.00 0.05 0.00 78 1009.0
20260506072016 12 135 4.8 11.3 0.00 0.05 0.00 80 1009.3
20260506070759 11 225 8.0 11.3 0.00 0.08 0.00 80 1009.4
20260506061850 11 315 0.0 9.7 0.00 0.08 0.00 84 1009.3
20260506060633 10 315 0.0 9.7 0.00 0.08 0.00 86 1009.5
20260506050507 8 90 0.0 9.7 0.00 0.08 0.00 94 1010.0
20260506044032 8 135 0.0 9.7 0.00 0.08 0.00 94 1010.2
20260506042815 8 315 0.0 9.7 0.00 0.08 0.00 94 1010.2
20260506041558 8 180 1.6 9.7 0.00 0.08 0.00 94 1010.1
20260506040341 8 180 0.0 9.7 0.00 0.08 0.00 93 1009.9
20260506035123 8 270 0.0 9.7 0.00 0.08 0.00 93 1010.0
20260506033906 8 292 0.0 9.7 0.00 0.08 0.00 93 1010.2
20260506032649 8 135 0.0 9.7 0.00 0.08 0.00 92 1010.3
20260506031432 8 135 0.0 9.7 0.00 0.08 0.00 92 1010.5
20260506030215 8 315 0.0 9.7 0.00 0.08 0.00 92 1010.5
20260506024958 8 270 0.0 9.7 0.00 0.08 0.00 91 1010.6
20260506023740 9 135 1.6 9.7 0.00 0.08 0.00 91 1010.9
20260506022523 9 112 0.0 9.7 0.00 0.08 0.00 88 1010.8
20260506021306 10 90 0.0 9.7 0.00 0.08 0.00 87 1010.8
20260506020049 10 315 1.6 9.7 0.00 0.08 0.00 87 1010.8
20260506014832 10 315 4.8 9.7 0.00 0.08 0.00 86 1010.9
20260506013614 10 135 1.6 9.7 0.00 0.08 0.00 86 1011.2
20260506012357 10 225 0.0 9.7 0.00 0.08 0.00 86 1011.4
20260506011140 10 270 0.0 9.7 0.00 0.08 0.00 86 1011.5
20260506005923 10 180 1.6 9.7 0.00 0.08 0.00 86 1011.4
20260506004706 10 225 3.2 9.7 0.00 0.08 0.00 84 1011.6
20260506003448 10 315 0.0 9.7 0.00 0.08 0.00 85 1011.8
20260506002231 10 180 0.0 9.7 0.00 0.08 0.00 85 1012.0
20260506001014 10 315 6.4 9.7 0.00 0.08 0.00 85 1011.8
20260505235756 10 292 0.0 6.4 0.00 0.08 0.00 86 1011.9
20260505234539 10 292 0.0 6.4 0.00 0.08 0.00 87 1012.0
20260505233322 10 135 0.0 6.4 0.00 0.08 0.00 88 1012.1
20260505232105 10 315 0.0 6.4 0.00 0.08 0.00 87 1012.3
20260505230848 10 270 1.6 6.4 0.00 0.08 0.00 87 1012.4
20260505225630 10 135 1.6 4.8 0.00 0.08 0.00 88 1012.5
20260505224413 10 315 0.0 4.8 0.00 0.08 0.00 89 1012.4
20260505223156 10 315 0.0 3.2 0.00 0.08 0.00 90 1012.4
20260505221939 10 315 0.0 3.2 0.00 0.08 0.00 89 1012.4
20260505220722 10 315 0.0 3.2 0.00 0.08 0.00 88 1012.4
20260505215504 10 270 0.0 49.9 0.00 0.08 0.08 89 1012.6
20260505214247 10 270 0.0 49.9 0.00 0.08 0.08 88 1012.6
20260505213030 10 315 1.6 49.9 0.00 0.08 0.08 90 1012.6
20260505211813 10 315 0.0 49.9 0.00 0.08 0.08 90 1012.6
20260505210555 10 45 0.0 49.9 0.00 0.08 0.08 91 1012.7
20260505205338 10 315 0.0 49.9 0.00 0.08 0.08 88 1012.7
20260505204121 10 315 0.0 49.9 0.00 0.08 0.08 88 1012.7
20260505202904 11 315 3.2 49.9 0.00 0.08 0.08 88 1012.6
20260505201647 10 315 0.0 49.9 0.00 0.08 0.08 83 1012.4
20260505200430 11 315 1.6 49.9 0.00 0.08 0.08 84 1012.2
20260505195212 11 315 0.0 49.9 0.00 0.10 0.08 83 1012.1
20260505193955 11 270 0.0 49.9 0.00 0.10 0.08 82 1012.0
20260505192738 11 135 0.0 49.9 0.00 0.10 0.08 80 1011.8
20260505191521 12 135 0.0 49.9 0.00 0.10 0.08 78 1011.5
20260505185046 13 315 3.2 49.9 0.00 0.10 0.08 72 1011.0
20260505183829 13 270 8.0 49.9 0.00 0.10 0.08 70 1010.7
20260505182612 14 292 9.7 49.9 0.00 0.10 0.08 68 1010.8
20260505181355 14 315 6.4 49.9 0.00 0.10 0.08 70 1010.7
20260505180137 15 292 0.0 49.9 0.00 0.10 0.08 68 1010.5